OAL929 HCMM-HDAM

Flight info

Callsign OAL929
Flight time 1h 57m
Altitude 38000
Route TULAP UM665 MAV UQ554 DWA M997 ASTAR
Aircraft B738/M-V/N

Departure

Time 2026-05-09 10:05
Airport Aden Adde International Airport (HCMM)

Arrival

Time 2026-05-09 12:02
Airport Djibouti-Ambouli Airport (HDAM)
Time Latitude Longitude Altitude Speed Heading
2026-05-09 09:59 2.02274 45.31463 34 ft 0 kts 230°
2026-05-09 10:04 2.02182 45.31352 33 ft 60 kts 230°
2026-05-09 10:04 2.01737 45.30812 31 ft 139 kts 230°
2026-05-09 10:05 2.01011 45.29943 489 ft 166 kts 229°
2026-05-09 10:05 2.00269 45.29042 1542 ft 169 kts 227°
2026-05-09 10:05 1.99229 45.28413 2205 ft 196 kts 189°
2026-05-09 10:05 1.97877 45.28724 2642 ft 213 kts 152°
2026-05-09 10:06 1.96557 45.29479 3170 ft 223 kts 154°
2026-05-09 10:06 1.95164 45.30191 3741 ft 225 kts 156°
2026-05-09 10:06 1.93750 45.30888 3907 ft 227 kts 156°
2026-05-09 10:06 1.92325 45.31571 3933 ft 229 kts 157°
2026-05-09 10:07 1.90789 45.32009 3933 ft 237 kts 185°
2026-05-09 10:07 1.89222 45.31383 4203 ft 258 kts 223°
2026-05-09 10:07 1.88187 45.29907 4898 ft 264 kts 242°
2026-05-09 10:07 1.87492 45.28194 5672 ft 268 kts 250°
2026-05-09 10:08 1.86915 45.26414 6472 ft 270 kts 252°
2026-05-09 10:08 1.86356 45.24610 7185 ft 274 kts 252°
2026-05-09 10:08 1.85786 45.22779 7899 ft 277 kts 252°
2026-05-09 10:08 1.85204 45.20933 8657 ft 280 kts 252°
2026-05-09 10:09 1.84606 45.19064 9368 ft 284 kts 252°
2026-05-09 10:09 1.83994 45.17174 10062 ft 288 kts 252°
2026-05-09 10:09 1.83360 45.15232 10447 ft 304 kts 252°
2026-05-09 10:09 1.82671 45.13135 10569 ft 328 kts 252°
2026-05-09 10:10 1.81935 45.10901 10719 ft 348 kts 252°
2026-05-09 10:10 1.81155 45.08544 10925 ft 364 kts 252°
2026-05-09 10:10 1.80351 45.06123 11435 ft 369 kts 252°
2026-05-09 10:10 1.79538 45.03682 12031 ft 371 kts 252°
2026-05-09 10:11 1.78721 45.01230 12587 ft 374 kts 252°
2026-05-09 10:11 1.77893 44.98747 13108 ft 379 kts 252°
2026-05-09 10:11 1.77068 44.96271 13643 ft 382 kts 252°
2026-05-09 10:11 1.76224 44.93740 14129 ft 385 kts 252°
2026-05-09 10:12 1.75376 44.91196 14611 ft 387 kts 252°
2026-05-09 10:12 1.74522 44.88635 15099 ft 390 kts 252°
2026-05-09 10:12 1.73665 44.86066 15553 ft 393 kts 252°
2026-05-09 10:12 1.72786 44.83433 15979 ft 397 kts 252°
2026-05-09 10:13 1.71914 44.80817 16410 ft 400 kts 252°
2026-05-09 10:13 1.71033 44.78178 16856 ft 403 kts 252°
2026-05-09 10:13 1.70146 44.75517 17280 ft 406 kts 252°
2026-05-09 10:13 1.69244 44.72813 17685 ft 409 kts 252°
2026-05-09 10:14 1.68347 44.70122 18069 ft 413 kts 252°
2026-05-09 10:14 1.67428 44.67368 18440 ft 416 kts 251°
2026-05-09 10:14 1.66526 44.64663 18802 ft 418 kts 251°
2026-05-09 10:14 1.65604 44.61901 19135 ft 421 kts 251°
2026-05-09 10:15 1.64671 44.59104 19486 ft 423 kts 251°
2026-05-09 10:15 1.63736 44.56302 19840 ft 425 kts 251°
2026-05-09 10:15 1.62805 44.53510 20176 ft 428 kts 251°
2026-05-09 10:15 1.61863 44.50688 20484 ft 431 kts 251°
2026-05-09 10:16 1.60908 44.47824 20810 ft 433 kts 251°
2026-05-09 10:16 1.59962 44.44989 21133 ft 435 kts 251°
2026-05-09 10:16 1.58998 44.42102 21450 ft 438 kts 251°
2026-05-09 10:16 1.58034 44.39213 21739 ft 440 kts 251°
2026-05-09 10:17 1.57063 44.36304 22028 ft 442 kts 251°
2026-05-09 10:17 1.56089 44.33385 22321 ft 445 kts 251°
2026-05-09 10:17 1.55105 44.30434 22598 ft 447 kts 251°
2026-05-09 10:17 1.54121 44.27487 22856 ft 449 kts 251°
2026-05-09 10:18 1.53122 44.24495 23125 ft 452 kts 251°
2026-05-09 10:18 1.52127 44.21513 23386 ft 454 kts 251°
2026-05-09 10:18 1.51124 44.18510 23607 ft 456 kts 251°
2026-05-09 10:18 1.50118 44.15495 23832 ft 458 kts 251°
2026-05-09 10:19 1.49124 44.12519 24067 ft 459 kts 251°
2026-05-09 10:19 1.48109 44.09479 24284 ft 460 kts 251°
2026-05-09 10:19 1.47090 44.06426 24499 ft 461 kts 251°
2026-05-09 10:19 1.46082 44.03410 24706 ft 463 kts 251°
2026-05-09 10:20 1.45061 44.00350 24915 ft 464 kts 251°
2026-05-09 10:20 1.44043 43.97300 25124 ft 465 kts 250°
2026-05-09 10:20 1.43006 43.94196 25325 ft 467 kts 250°
2026-05-09 10:20 1.41987 43.91143 25515 ft 468 kts 250°
2026-05-09 10:21 1.40953 43.88049 25699 ft 470 kts 250°
2026-05-09 10:21 1.39917 43.84944 25900 ft 471 kts 250°
2026-05-09 10:21 1.38880 43.81841 26104 ft 472 kts 250°
2026-05-09 10:21 1.38188 43.79770 26221 ft 473 kts 250°
2026-05-09 10:22 1.36800 43.75614 26451 ft 475 kts 250°
2026-05-09 10:22 1.35753 43.72478 26638 ft 476 kts 250°
2026-05-09 10:22 1.35056 43.70390 26755 ft 476 kts 250°
2026-05-09 10:22 1.33995 43.67217 26921 ft 478 kts 250°
2026-05-09 10:23 1.33181 43.63982 26956 ft 484 kts 263°
2026-05-09 10:23 1.33411 43.60673 27136 ft 486 kts 283°
2026-05-09 10:23 1.34615 43.57523 27547 ft 484 kts 298°
2026-05-09 10:23 1.36508 43.54772 27629 ft 488 kts 312°
2026-05-09 10:24 1.39134 43.52586 27639 ft 493 kts 327°
2026-05-09 10:24 1.42069 43.50783 28016 ft 490 kts 328°
2026-05-09 10:24 1.44929 43.49001 28091 ft 493 kts 327°
2026-05-09 10:25 1.50742 43.45303 28250 ft 498 kts 327°
2026-05-09 10:25 1.53671 43.43414 28460 ft 497 kts 327°
2026-05-09 10:25 1.56539 43.41558 28732 ft 495 kts 327°
2026-05-09 10:25 1.59461 43.39665 28995 ft 494 kts 327°
2026-05-09 10:26 1.62315 43.37816 29179 ft 495 kts 327°
2026-05-09 10:26 1.65211 43.35941 29355 ft 495 kts 327°
2026-05-09 10:26 1.68106 43.34068 29586 ft 495 kts 327°
2026-05-09 10:26 1.70999 43.32198 29855 ft 493 kts 327°
2026-05-09 10:27 1.73873 43.30340 30070 ft 493 kts 327°
2026-05-09 10:27 1.76718 43.28500 30237 ft 493 kts 327°
2026-05-09 10:27 1.79601 43.26636 30431 ft 493 kts 327°
2026-05-09 10:27 1.82476 43.24777 30652 ft 492 kts 327°
2026-05-09 10:28 1.85335 43.22928 30880 ft 491 kts 327°
2026-05-09 10:28 1.88219 43.21063 31105 ft 490 kts 327°
2026-05-09 10:28 1.91075 43.19216 31339 ft 489 kts 327°
2026-05-09 10:28 1.93890 43.17394 31585 ft 487 kts 327°
2026-05-09 10:29 1.96758 43.15539 31835 ft 486 kts 327°
2026-05-09 10:29 1.99583 43.13712 32107 ft 484 kts 327°
2026-05-09 10:29 2.02420 43.11875 32375 ft 483 kts 326°
2026-05-09 10:29 2.05223 43.10050 32614 ft 482 kts 326°
2026-05-09 10:30 2.08010 43.08229 32867 ft 481 kts 326°
2026-05-09 10:30 2.10796 43.06406 33138 ft 479 kts 326°
2026-05-09 10:30 2.13591 43.04576 33423 ft 477 kts 326°
2026-05-09 10:30 2.16359 43.02765 33669 ft 477 kts 326°
2026-05-09 10:31 2.19151 43.00938 33924 ft 475 kts 326°
2026-05-09 10:31 2.21878 42.99155 34201 ft 473 kts 326°
2026-05-09 10:31 2.24642 42.97348 34473 ft 470 kts 326°
2026-05-09 10:31 2.27390 42.95552 34663 ft 470 kts 326°
2026-05-09 10:32 2.30120 42.93767 34815 ft 471 kts 326°
2026-05-09 10:32 2.32847 42.91984 35001 ft 470 kts 326°
2026-05-09 10:32 2.35599 42.90185 35240 ft 469 kts 326°
2026-05-09 10:32 2.38322 42.88405 35488 ft 467 kts 326°
2026-05-09 10:33 2.41033 42.86633 35687 ft 466 kts 326°
2026-05-09 10:33 2.43725 42.84872 35859 ft 466 kts 326°
2026-05-09 10:33 2.46417 42.83112 36035 ft 466 kts 326°
2026-05-09 10:33 2.49137 42.81333 36247 ft 464 kts 326°
2026-05-09 10:34 2.51854 42.79556 36475 ft 463 kts 326°
2026-05-09 10:34 2.57225 42.76043 36812 ft 462 kts 326°
2026-05-09 10:34 2.59900 42.74293 36961 ft 462 kts 326°
2026-05-09 10:35 2.62598 42.72528 37138 ft 461 kts 326°
2026-05-09 10:35 2.65261 42.70786 37339 ft 460 kts 326°
2026-05-09 10:35 2.67932 42.69039 37517 ft 459 kts 326°
2026-05-09 10:35 2.70626 42.67277 37662 ft 459 kts 326°
2026-05-09 10:36 2.73278 42.65541 37791 ft 459 kts 326°
2026-05-09 10:36 2.75950 42.63793 37897 ft 460 kts 326°
2026-05-09 10:36 2.81329 42.60273 37900 ft 460 kts 326°
2026-05-09 10:37 2.86675 42.56775 37902 ft 457 kts 326°
2026-05-09 10:37 2.91956 42.53318 37891 ft 455 kts 326°
2026-05-09 10:38 2.97274 42.49837 37893 ft 453 kts 326°
2026-05-09 10:38 3.02518 42.46404 37901 ft 452 kts 326°
2026-05-09 10:39 3.07810 42.42939 37893 ft 452 kts 326°
2026-05-09 10:39 3.13065 42.39498 37908 ft 453 kts 326°
2026-05-09 10:40 3.18338 42.36045 37891 ft 454 kts 326°
2026-05-09 10:40 3.23619 42.32586 37882 ft 456 kts 326°
2026-05-09 10:41 3.28942 42.29099 37900 ft 457 kts 326°
2026-05-09 10:41 3.34245 42.25624 37892 ft 458 kts 326°
2026-05-09 10:42 3.39590 42.22122 37879 ft 460 kts 326°
2026-05-09 10:42 3.44936 42.18619 37902 ft 460 kts 326°
2026-05-09 10:43 3.50300 42.15103 37881 ft 461 kts 326°
2026-05-09 10:43 3.55668 42.11584 37900 ft 461 kts 326°
2026-05-09 10:44 3.61042 42.08062 37887 ft 461 kts 326°
2026-05-09 10:44 3.66403 42.04546 37885 ft 460 kts 326°
2026-05-09 10:46 3.79734 41.95802 37883 ft 458 kts 326°
2026-05-09 10:46 3.85062 41.92305 37887 ft 457 kts 326°
2026-05-09 10:47 3.90384 41.88827 37883 ft 457 kts 328°
2026-05-09 10:47 3.93242 41.87426 37862 ft 457 kts 340°
2026-05-09 10:47 3.96302 41.86577 37907 ft 457 kts 349°
2026-05-09 10:48 4.02639 41.86282 37949 ft 456 kts 360°
2026-05-09 10:48 4.08969 41.86319 37909 ft 457 kts 359°
2026-05-09 10:49 4.15341 41.86311 37897 ft 458 kts 359°
2026-05-09 10:49 4.21720 41.86281 37893 ft 459 kts 359°
2026-05-09 10:50 4.28117 41.86244 37893 ft 459 kts 359°
2026-05-09 10:50 4.34518 41.86209 37901 ft 460 kts 359°
2026-05-09 10:51 4.40887 41.86175 37892 ft 461 kts 359°
2026-05-09 10:51 4.47312 41.86142 37881 ft 462 kts 359°
2026-05-09 10:52 4.53736 41.86108 37895 ft 462 kts 359°
2026-05-09 10:52 4.60172 41.86075 37890 ft 462 kts 359°
2026-05-09 10:53 4.66609 41.86041 37883 ft 463 kts 359°
2026-05-09 10:53 4.73043 41.86007 37890 ft 462 kts 359°
2026-05-09 10:54 4.79481 41.85973 37881 ft 463 kts 359°
2026-05-09 10:54 4.85917 41.85940 37902 ft 462 kts 359°
2026-05-09 10:55 4.92347 41.85906 37896 ft 462 kts 359°
2026-05-09 10:55 4.98778 41.85872 37891 ft 462 kts 359°
2026-05-09 10:56 5.05200 41.85839 37901 ft 462 kts 359°
2026-05-09 10:56 5.11626 41.85805 37892 ft 462 kts 359°
2026-05-09 10:57 5.18006 41.85771 37899 ft 461 kts 359°
2026-05-09 10:57 5.24434 41.85738 37894 ft 462 kts 359°
2026-05-09 10:58 5.30860 41.85704 37905 ft 462 kts 359°
2026-05-09 10:58 5.37292 41.85670 37904 ft 462 kts 359°
2026-05-09 10:59 5.43729 41.85637 37905 ft 463 kts 359°
2026-05-09 10:59 5.50181 41.85603 37905 ft 463 kts 359°
2026-05-09 11:00 5.56601 41.85569 37912 ft 464 kts 359°
2026-05-09 11:00 5.63078 41.85535 37916 ft 464 kts 359°
2026-05-09 11:01 5.69517 41.85501 37911 ft 464 kts 359°
2026-05-09 11:01 5.75990 41.85474 37925 ft 464 kts 359°
2026-05-09 11:02 5.82407 41.85453 37925 ft 465 kts 359°
2026-05-09 11:02 5.88884 41.85431 37921 ft 465 kts 359°
2026-05-09 11:03 5.95352 41.85408 37934 ft 465 kts 359°
2026-05-09 11:03 6.01822 41.85385 37917 ft 465 kts 359°
2026-05-09 11:04 6.08294 41.85362 37934 ft 465 kts 359°
2026-05-09 11:04 6.14765 41.85338 37907 ft 465 kts 359°
2026-05-09 11:05 6.21245 41.85315 37927 ft 465 kts 359°
2026-05-09 11:05 6.27669 41.85292 37933 ft 464 kts 359°
2026-05-09 11:06 6.34134 41.85269 37911 ft 464 kts 359°
2026-05-09 11:06 6.40593 41.85245 37894 ft 464 kts 359°
2026-05-09 11:07 6.47050 41.85222 37915 ft 464 kts 359°
2026-05-09 11:07 6.53509 41.85199 37905 ft 463 kts 359°
2026-05-09 11:08 6.59955 41.85176 37907 ft 463 kts 359°
2026-05-09 11:08 6.66365 41.85153 37910 ft 463 kts 359°
2026-05-09 11:09 6.72806 41.85129 37892 ft 463 kts 359°
2026-05-09 11:09 6.79255 41.85106 37898 ft 463 kts 359°
2026-05-09 11:10 6.85692 41.85083 37896 ft 463 kts 359°
2026-05-09 11:10 6.92142 41.85060 37899 ft 463 kts 359°
2026-05-09 11:11 6.98590 41.85037 37890 ft 463 kts 359°
2026-05-09 11:11 7.05039 41.85013 37914 ft 463 kts 359°
2026-05-09 11:12 7.11485 41.84990 37895 ft 463 kts 359°
2026-05-09 11:12 7.17930 41.84967 37919 ft 463 kts 359°
2026-05-09 11:13 7.24377 41.84944 37894 ft 463 kts 359°
2026-05-09 11:13 7.30777 41.84921 37924 ft 463 kts 359°
2026-05-09 11:14 7.37214 41.84897 37899 ft 463 kts 359°
2026-05-09 11:14 7.43664 41.84874 37929 ft 462 kts 359°
2026-05-09 11:15 7.50100 41.84851 37908 ft 463 kts 359°
2026-05-09 11:15 7.56531 41.84828 37907 ft 462 kts 359°
2026-05-09 11:16 7.62960 41.84804 37930 ft 462 kts 359°
2026-05-09 11:16 7.69386 41.84781 37910 ft 462 kts 359°
2026-05-09 11:17 7.75803 41.84764 37937 ft 461 kts 359°
2026-05-09 11:17 7.82187 41.84750 37921 ft 461 kts 359°
2026-05-09 11:18 7.88598 41.84736 37937 ft 461 kts 359°
2026-05-09 11:18 7.95017 41.84722 37913 ft 461 kts 359°
2026-05-09 11:19 8.01435 41.84707 37920 ft 462 kts 359°
2026-05-09 11:19 8.07863 41.84692 37939 ft 461 kts 359°
2026-05-09 11:20 8.14291 41.84678 37917 ft 462 kts 359°
2026-05-09 11:20 8.20726 41.84663 37938 ft 462 kts 359°
2026-05-09 11:21 8.26078 41.84650 37927 ft 463 kts 359°
2026-05-09 11:21 8.33577 41.84634 37913 ft 464 kts 359°
2026-05-09 11:22 8.40033 41.84624 37926 ft 464 kts 359°
2026-05-09 11:22 8.45401 41.84616 37935 ft 464 kts 359°
2026-05-09 11:23 8.51874 41.84607 37915 ft 465 kts 359°
2026-05-09 11:23 8.58344 41.84597 37942 ft 465 kts 359°
2026-05-09 11:24 8.65876 41.84585 37936 ft 466 kts 359°
2026-05-09 11:24 8.71305 41.84576 37953 ft 466 kts 358°
2026-05-09 11:25 8.77791 41.84566 37934 ft 466 kts 358°
2026-05-09 11:25 8.84244 41.84556 37947 ft 466 kts 358°
2026-05-09 11:26 8.90724 41.84546 37963 ft 466 kts 358°
2026-05-09 11:26 8.97210 41.84536 37949 ft 466 kts 358°
2026-05-09 11:27 9.03692 41.84525 37973 ft 466 kts 358°
2026-05-09 11:27 9.10178 41.84515 37959 ft 466 kts 358°
2026-05-09 11:28 9.16659 41.84505 37992 ft 466 kts 358°
2026-05-09 11:28 9.23104 41.84495 37994 ft 466 kts 359°
2026-05-09 11:29 9.29589 41.84485 38005 ft 467 kts 359°
2026-05-09 11:29 9.36105 41.84474 37976 ft 468 kts 359°
2026-05-09 11:30 9.42623 41.84464 37920 ft 469 kts 359°
2026-05-09 11:30 9.49145 41.84454 37899 ft 469 kts 359°
2026-05-09 11:31 9.55653 41.84444 37891 ft 469 kts 359°
2026-05-09 11:31 9.62158 41.84662 37819 ft 471 kts
2026-05-09 11:31 9.65307 41.85519 37958 ft 468 kts 19°
2026-05-09 11:32 9.68278 41.86884 37822 ft 472 kts 31°
2026-05-09 11:32 9.70966 41.88686 38020 ft 467 kts 33°
2026-05-09 11:32 9.73667 41.90543 37840 ft 471 kts 33°
2026-05-09 11:33 9.79107 41.94228 37831 ft 471 kts 33°
2026-05-09 11:33 9.87327 41.99713 37859 ft 471 kts 32°
2026-05-09 11:34 9.92821 42.03368 37828 ft 472 kts 33°
2026-05-09 11:34 9.98319 42.07030 37814 ft 473 kts 33°
2026-05-09 11:35 10.03801 42.10684 37438 ft 480 kts 33°
2026-05-09 11:35 10.06605 42.12553 36820 ft 481 kts 33°
2026-05-09 11:35 10.09383 42.14406 36353 ft 477 kts 33°
2026-05-09 11:36 10.12174 42.16269 35598 ft 481 kts 33°
2026-05-09 11:36 10.14961 42.18128 35058 ft 478 kts 33°
2026-05-09 11:36 10.17769 42.20003 34297 ft 483 kts 33°
2026-05-09 11:36 10.20563 42.21868 33559 ft 484 kts 33°
2026-05-09 11:37 10.23403 42.23765 32999 ft 483 kts 33°
2026-05-09 11:37 10.26214 42.25642 31894 ft 492 kts 34°
2026-05-09 11:37 10.29045 42.27533 31522 ft 482 kts 34°
2026-05-09 11:37 10.31892 42.29436 30603 ft 490 kts 34°
2026-05-09 11:38 10.34717 42.31324 29776 ft 492 kts 34°
2026-05-09 11:38 10.37514 42.33193 29463 ft 480 kts 34°
2026-05-09 11:38 10.40321 42.35070 28738 ft 480 kts 34°
2026-05-09 11:38 10.43088 42.36920 27999 ft 479 kts 34°
2026-05-09 11:39 10.45842 42.38762 27735 ft 467 kts 34°
2026-05-09 11:39 10.48574 42.40590 27061 ft 467 kts 34°
2026-05-09 11:39 10.51275 42.42397 26384 ft 467 kts 34°
2026-05-09 11:40 10.56637 42.45988 25367 ft 459 kts 34°
2026-05-09 11:40 10.59289 42.47765 24843 ft 456 kts 34°
2026-05-09 11:40 10.61930 42.49534 24339 ft 453 kts 34°
2026-05-09 11:40 10.64557 42.51293 23765 ft 451 kts 34°
2026-05-09 11:41 10.67177 42.53028 23251 ft 448 kts 33°
2026-05-09 11:41 10.69767 42.54695 22658 ft 445 kts 33°
2026-05-09 11:41 10.72377 42.56356 22112 ft 440 kts 33°
2026-05-09 11:41 10.74964 42.57999 21565 ft 436 kts 33°
2026-05-09 11:42 10.77522 42.59627 21040 ft 432 kts 33°
2026-05-09 11:42 10.80052 42.61242 20509 ft 425 kts 33°
2026-05-09 11:42 10.82517 42.62818 19995 ft 412 kts 33°
2026-05-09 11:42 10.84895 42.64341 19507 ft 400 kts 33°
2026-05-09 11:43 10.87224 42.65834 19029 ft 389 kts 34°
2026-05-09 11:43 10.89483 42.67285 18554 ft 379 kts 34°
2026-05-09 11:43 10.91687 42.68700 18091 ft 370 kts 34°
2026-05-09 11:43 10.93847 42.70087 17568 ft 363 kts 34°
2026-05-09 11:44 10.95959 42.71443 17096 ft 355 kts 34°
2026-05-09 11:44 10.98037 42.72778 16660 ft 353 kts 34°
2026-05-09 11:44 11.00144 42.74134 16225 ft 366 kts 34°
2026-05-09 11:44 11.02315 42.75531 15777 ft 370 kts 34°
2026-05-09 11:45 11.04461 42.76910 15309 ft 360 kts 34°
2026-05-09 11:45 11.06518 42.78231 14874 ft 348 kts 33°
2026-05-09 11:45 11.08560 42.79541 14441 ft 338 kts 33°
2026-05-09 11:45 11.10528 42.80806 14026 ft 333 kts 33°
2026-05-09 11:46 11.12444 42.82039 13622 ft 328 kts 33°
2026-05-09 11:46 11.14394 42.83294 13168 ft 333 kts 33°
2026-05-09 11:46 11.16400 42.84586 12726 ft 348 kts 33°
2026-05-09 11:46 11.18453 42.85906 12267 ft 345 kts 33°
2026-05-09 11:47 11.20453 42.87191 11873 ft 333 kts 33°
2026-05-09 11:47 11.22370 42.88423 11496 ft 322 kts 33°
2026-05-09 11:47 11.24248 42.89630 11108 ft 317 kts 32°
2026-05-09 11:47 11.26105 42.90824 10737 ft 314 kts 32°
2026-05-09 11:48 11.27950 42.92010 10647 ft 318 kts 32°
2026-05-09 11:48 11.29828 42.93217 10481 ft 321 kts 32°
2026-05-09 11:48 11.31666 42.94400 10340 ft 305 kts 32°
2026-05-09 11:48 11.33410 42.95524 10191 ft 288 kts 32°
2026-05-09 11:49 11.35058 42.96587 10080 ft 273 kts 32°
2026-05-09 11:49 11.36621 42.97595 9962 ft 261 kts 31°
2026-05-09 11:49 11.38138 42.98574 9850 ft 254 kts 31°
2026-05-09 11:49 11.39642 42.99543 9613 ft 262 kts 31°
2026-05-09 11:50 11.41229 43.00565 9353 ft 276 kts 31°
2026-05-09 11:50 11.42860 43.01616 9037 ft 277 kts 31°
2026-05-09 11:50 11.44492 43.02668 8730 ft 277 kts 31°
2026-05-09 11:50 11.46116 43.03715 8431 ft 276 kts 31°
2026-05-09 11:51 11.47731 43.04757 8132 ft 275 kts 31°
2026-05-09 11:51 11.49346 43.05798 7855 ft 274 kts 31°
2026-05-09 11:51 11.50959 43.06838 7568 ft 274 kts 31°
2026-05-09 11:51 11.52550 43.07863 7448 ft 266 kts 31°
2026-05-09 11:52 11.53961 43.08953 7280 ft 252 kts 50°
2026-05-09 11:52 11.54679 43.10496 7184 ft 233 kts 76°
2026-05-09 11:52 11.54862 43.11997 7086 ft 216 kts 90°
2026-05-09 11:52 11.54808 43.13466 6916 ft 201 kts 91°
2026-05-09 11:53 11.54772 43.14902 6568 ft 197 kts 91°
2026-05-09 11:53 11.54741 43.16299 6281 ft 198 kts 91°
2026-05-09 11:53 11.54713 43.17693 6102 ft 197 kts 91°
2026-05-09 11:53 11.54685 43.19104 5897 ft 200 kts 91°
2026-05-09 11:54 11.54657 43.20526 5688 ft 201 kts 91°
2026-05-09 11:54 11.54631 43.21955 5478 ft 201 kts 91°
2026-05-09 11:54 11.54605 43.23367 5268 ft 197 kts 91°
2026-05-09 11:54 11.54580 43.24733 5180 ft 188 kts 91°
2026-05-09 11:55 11.54556 43.26095 5007 ft 194 kts 91°
2026-05-09 11:56 11.54023 43.32847 3955 ft 190 kts 126°
2026-05-09 11:56 11.53162 43.33811 3861 ft 183 kts 142°
2026-05-09 11:56 11.52030 43.34407 3762 ft 185 kts 164°
2026-05-09 11:57 11.50726 43.34511 3558 ft 193 kts 188°
2026-05-09 11:57 11.49475 43.34051 3379 ft 193 kts 212°
2026-05-09 11:57 11.48518 43.33101 3174 ft 193 kts 235°
2026-05-09 11:57 11.47946 43.31864 2928 ft 196 kts 256°
2026-05-09 11:58 11.48070 43.30547 2648 ft 189 kts 305°
2026-05-09 11:58 11.49049 43.29869 2616 ft 164 kts 346°
2026-05-09 11:58 11.50099 43.29474 2361 ft 159 kts 336°
2026-05-09 11:58 11.51080 43.28946 2250 ft 161 kts 333°
2026-05-09 11:59 11.52047 43.28392 2193 ft 155 kts 333°
2026-05-09 11:59 11.53022 43.27914 2186 ft 156 kts 346°
2026-05-09 11:59 11.54083 43.27700 2194 ft 156 kts 348°
2026-05-09 11:59 11.54952 43.27040 2111 ft 162 kts 297°
2026-05-09 12:00 11.54953 43.25937 2043 ft 158 kts 247°
2026-05-09 12:00 11.54532 43.24914 1678 ft 158 kts 256°
2026-05-09 12:00 11.54616 43.23819 1159 ft 154 kts 292°
2026-05-09 12:00 11.54852 43.22796 958 ft 158 kts 271°
2026-05-09 12:01 11.54667 43.21627 724 ft 166 kts 262°
2026-05-09 12:01 11.54564 43.20438 724 ft 167 kts 273°
2026-05-09 12:01 11.54625 43.19254 417 ft 168 kts 277°
2026-05-09 12:01 11.54688 43.18086 166 ft 164 kts 273°
2026-05-09 12:02 11.54719 43.16976 53 ft 148 kts 271°
2026-05-09 12:02 11.54727 43.16036 41 ft 103 kts 272°
2026-05-09 12:02 11.54750 43.15779 44 ft 16 kts 314°
2026-05-09 12:02 11.54842 43.15779 45 ft 0 kts